Miscellaneous Local Product
Issued by NWS Hastings, NE

Home | Current Version | Previous Version | Graphics & Text | Print | Product List | Glossary On
Versions: 1 2 3 4 5 6 7 8 9 10 11 12 13 14 15 16 17 18 19 20 21 22 23 24 25 26 27 28 29 30 31 32 33 34 35 36 37 38 39 40 41 42 43 44 45 46 47 48 49 50
000
AXUS43 KGID 250602
MISGRI

GID CWA HOURLY WEATHER ROUNDUP
NATIONAL WEATHER SERVICE HASTINGS NE
1200 AM CST SUN JAN 25 2015

NOTE: "FAIR" INDICATES FEW OR NO CLOUDS BELOW 12,000 FEET WITH NO
SIGNIFICANT WEATHER AND/OR OBSTRUCTIONS TO VISIBILITY.

...SOUTH CENTRAL NEBRASKA...

CITY           SKY/WX    TMP DP  RH WIND       PRES   REMARKS
GRAND ISLAND   MOCLDY    45  34  65 NW24G37   29.73F
HASTINGS       MOCLDY    46  32  58 NW29G37   29.75R
KEARNEY        CLOUDY    45  30  57 NW29G41   29.79S
ORD            LGT RAIN  41  36  82 NW23G40   29.75R
YORK           CLOUDY    45  39  81 NW15      29.70S
AURORA         MOCLDY    44  36  71 NW16G24   29.71F
LEXINGTON      MOCLDY    44  32  62 NW30G39   29.85R
HOLDREGE       MOCLDY    44  31  61 NW22G32   29.82R
HEBRON         PTCLDY    47  35  61 NW14G25   29.73S

...NEBRASKA PANHANDLE...

CITY           SKY/WX    TMP DP  RH WIND       PRES   REMARKS
CHADRON        CLEAR     36  29  75 NW20G31   30.02S WCI  25
ALLIANCE       CLEAR     35  28  75 NW20      30.00S WCI  24
SCOTTSBLUFF    PTCLDY    38  29  70 NW23G35   30.07S WCI  27
SIDNEY         PTCLDY    37  27  67 NW21G30   30.07R WCI  26

...WESTERN AND NORTH CENTRAL NEBRASKA...

CITY           SKY/WX    TMP DP  RH WIND       PRES   REMARKS
VALENTINE      CLOUDY    42  30  62 NW32G46   29.85R
AINSWORTH      DRIZZLE   39  35  84 NW29G47   29.81R WCI  28
ONEILL         CLOUDY    40  35  83 NW36G49   29.74R WCI  27
BROKEN BOW     CLOUDY    45  32  60 NW40G55   29.80R
IMPERIAL       CLEAR     40  28  62 NW28G37   29.98R WCI  29
NORTH PLATTE   PTCLDY    39  31  72 NW20G28   29.90S WCI  29
MCCOOK         PTCLDY    43  32  65 NW22      29.93R

...EASTERN NEBRASKA...

CITY           SKY/WX    TMP DP  RH WIND       PRES   REMARKS
NORFOLK        CLOUDY    41  35  79 NW23G30   29.65R
SO SIOUX CITY  CLOUDY    41  37  86 NW14G29   29.59S
TEKAMAH        CLOUDY    43  37  79 NW30G36   29.61R
COLUMBUS       CLOUDY    43  36  75 NW13      29.68R
ALBION         CLOUDY    43  36  76 NW29G41   29.67S
OMAHA EPPLEY   CLOUDY    45  38  76 NW18      29.61R
OFFUTT AFB     MOCLDY    44  38  77 NW24G33   29.60S
MILLARD        MOCLDY    46  37  70 NW22G31   29.62R
LINCOLN        MOCLDY    46  38  73 NW15G25   29.67S
NEBRASKA CITY  CLOUDY    47  37  69 NW21G31   29.63S
BEATRICE       MOCLDY    45  39  79 NW20      29.69S
FALLS CITY     LGT RAIN  46  42  86 W10       29.65S

...NORTHERN KANSAS...

CITY           SKY/WX    TMP DP  RH WIND       PRES   REMARKS
GOODLAND       CLOUDY    41  30  65 NW31G45   30.03R
HILL CITY      CLOUDY    47  34  60 NW28G37   29.90R
NORTON         CLEAR     43  30  61 W18G26    29.89R
PHILLIPSBURG   CLEAR     48  34  57 NW21G30   29.86S
SMITH CENTER   CLEAR     45  32  61 NW25G32   29.83R
BELOIT         CLEAR     48  36  61 W16G24    29.79R
HAYS           MOCLDY    50  30  46 NW21G30   29.88R
RUSSELL        CLOUDY    49  36  61 NW25G33   29.85R
CONCORDIA      MOCLDY    44  35  70 W9        29.76R
SALINA         PTCLDY    49  38  65 NW20      29.80R
TOPEKA         CLOUDY    47  40  76 W5        29.70F



USA.gov is the U.S. government's official web portal to all federal, state and local government web resources and services.